Theta_e
313 313 313 314 314 314 313 313 312 312 312 312 313 313 313 312 312 308 300 305 310 318 322 312 307 306 305 304 307 306 301 297 298 299 301 307 305 310 311 309 310 312 313 315 321
313 313 313 313 313 313 312 312 312 312 312 312 312 312 312 313 307 302 310 314 322 322 309 308 303 304 302 301 304 303 299 298 302 304 303 305 305 306 305 306 307 309 313 316 317
314 313 313 313 313 313 312 312 312 312 312 312 311 311 311 311 303 309 324 319 321 323 311 308 303 302 300 302 301 300 298 300 302 304 305 304 304 306 304 302 306 306 309 313 314
314 314 313 312 312 312 312 312 311 311 311 311 311 311 312 307 298 306 331 323 325 320 305 304 303 299 298 298 301 297 300 301 302 304 303 301 304 302 303 305 308 309 311 312 312
314 314 313 312 312 312 312 311 311 311 311 310 310 310 308 298 298 323 329 327 323 310 304 304 302 300 297 297 298 298 299 300 302 301 301 302 300 301 302 306 309 309 310 310 312
315 313 313 313 312 311 312 312 311 311 311 311 310 311 306 291 303 325 323 313 308 305 307 308 305 302 299 299 298 298 298 300 301 301 301 300 302 301 304 308 307 308 309 310 311
315 315 313 313 313 312 312 311 312 311 313 312 311 311 302 295 308 321 316 308 307 308 307 310 309 303 302 298 301 299 297 298 299 301 300 301 297 298 304 305 305 307 308 309 310
315 315 314 313 313 313 312 312 311 312 313 312 312 310 296 303 310 316 312 307 308 310 311 312 310 304 302 301 298 296 295 293 298 298 300 299 294 300 304 303 303 304 306 307 310
315 314 314 313 313 312 312 311 312 312 314 314 309 305 299 315 308 312 311 306 308 309 310 311 306 300 300 297 295 294 290 291 295 299 299 298 295 301 305 303 303 305 306 306 307
315 314 313 314 312 312 311 314 315 315 313 312 310 301 304 304 310 310 311 309 307 306 304 302 301 298 296 295 288 289 290 291 292 297 298 297 297 301 304 303 302 304 305 306 307
314 313 313 313 313 311 309 309 306 304 307 305 303 300 304 311 314 308 308 306 305 303 298 298 296 293 296 297 295 293 292 291 295 299 295 297 297 300 303 303 304 305 306 307 308
313 313 313 313 312 311 308 304 306 307 301 306 307 305 307 309 303 306 308 301 300 296 297 296 293 298 298 296 294 293 292 292 296 298 296 297 297 301 302 303 304 304 305 306 309
312 312 312 312 310 307 304 307 311 310 301 301 305 305 306 308 303 304 305 301 298 295 295 294 295 297 295 295 293 294 292 293 293 296 299 297 295 298 301 302 304 305 306 307 307
311 311 311 311 306 303 303 310 309 310 295 296 301 305 306 306 300 309 305 302 298 295 294 295 299 295 295 293 295 291 296 295 294 293 289 296 287 296 299 300 301 304 306 305 306
311 311 311 309 306 301 307 307 309 309 285 300 301 310 307 302 303 304 307 303 297 296 296 294 294 294 293 295 296 294 296 295 295 294 293 293 290 294 298 297 300 302 304 307 308
310 310 310 306 305 306 308 307 309 294 284 297 301 300 300 302 300 302 304 306 303 298 297 297 299 297 297 297 297 299 297 296 295 293 286 292 291 292 294 297 299 302 304 306 306
310 309 307 308 303 306 306 308 294 287 298 294 295 298 298 297 299 299 298 298 296 291 292 296 296 299 298 295 299 297 294 287 285 285 285 292 289 292 297 300 300 301 303 306 307
308 307 306 307 308 308 309 301 286 292 294 298 297 297 295 296 295 296 294 293 297 295 292 289 287 295 299 296 295 295 294 288 281 283 286 292 286 292 299 301 302 303 305 305 306
306 303 303 307 309 307 304 292 289 295 296 295 295 292 293 293 294 293 292 292 294 296 291 289 288 297 299 299 298 294 291 295 289 289 285 288 292 296 298 298 301 302 302 303 306
300 299 304 307 309 307 299 291 294 300 299 298 290 292 288 291 292 292 292 296 295 298 298 294 288 294 297 299 298 296 298 289 291 281 279 285 286 287 292 295 299 299 301 303 306
301 300 306 308 309 305 296 294 297 302 302 296 293 291 292 291 293 291 291 295 297 296 298 296 293 291 295 293 292 293 292 292 291 289 282 280 284 294 295 296 297 299 301 303 305
299 297 307 307 302 297 296 295 297 299 302 299 298 295 292 292 291 291 291 295 300 297 292 295 293 288 290 296 296 294 294 294 287 284 287 286 284 296 297 298 300 299 301 304 305
297 296 306 305 294 292 295 295 297 297 298 297 296 297 297 292 287 291 292 297 297 295 293 296 290 285 286 290 293 292 293 294 292 291 285 282 285 297 297 298 299 299 301 304 304
299 294 298 299 297 293 291 292 293 298 297 298 297 298 294 291 293 289 291 294 296 295 299 298 291 288 284 287 291 288 291 293 292 286 286 287 288 292 295 296 298 300 302 303 304
299 294 296 290 293 293 293 292 290 290 297 297 294 294 291 288 289 290 292 294 295 297 295 295 286 289 290 291 291 289 289 290 289 290 286 288 289 292 295 296 298 301 302 302 301
297 294 296 293 294 292 292 291 291 292 292 292 291 293 294 288 290 288 290 291 290 293 292 293 287 289 286 288 288 286 288 289 290 290 290 290 289 296 299 301 300 301 301 300 300
297 300 297 292 292 290 291 291 290 292 293 296 293 291 291 292 295 295 296 295 293 291 289 290 288 286 281 286 287 282 287 288 289 291 290 286 293 299 298 299 300 301 300 299 299
Wind_Speed
17 16 15 13 12 11 10 10 11 11 11 12 10 9 9 10 11 3 7 7 7 9 5 4 3 5 3 3 2 2 4 6 8 6 5 4 4 6 6 9 6 6 7 10 8
17 17 15 14 13 11 11 9 10 10 11 11 10 9 9 9 7 9 10 7 9 14 5 6 7 7 4 4 3 4 5 9 4 6 8 10 10 9 7 11 12 12 13 13 12
17 17 16 14 13 12 11 10 10 10 10 10 9 9 8 7 5 2 6 12 12 11 3 3 7 3 4 4 4 4 6 5 5 9 8 9 10 9 10 14 12 14 17 16 14
19 18 17 15 13 11 11 10 9 8 8 8 8 8 8 2 3 2 8 14 12 7 5 7 5 6 5 6 5 4 5 5 3 7 8 10 7 10 12 15 16 16 18 17 18
20 19 18 16 14 13 11 9 8 8 7 6 6 6 3 4 6 3 15 14 9 6 7 6 9 4 5 4 6 5 3 5 9 8 9 12 12 12 9 13 14 15 12 15 15
19 20 19 16 14 13 12 10 9 8 7 6 4 3 3 4 3 6 11 10 9 6 7 6 5 4 5 3 4 5 3 4 6 9 6 11 15 3 6 10 12 10 13 9 11
18 17 19 17 15 12 11 11 9 8 8 5 3 2 2 7 2 7 9 5 8 5 6 3 2 3 6 5 2 2 4 5 11 6 8 5 12 9 12 3 8 12 10 10 9
19 17 17 18 16 14 12 11 11 9 6 4 4 2 7 2 1 7 6 4 4 4 1 3 4 3 1 5 3 3 3 5 2 3 2 6 11 8 4 7 11 11 10 9 10
21 20 18 18 17 15 14 14 9 5 5 7 4 3 6 1 4 6 8 4 6 4 2 0 1 3 3 2 2 2 4 2 5 3 4 4 8 9 17 14 13 10 11 11 11
23 21 20 18 17 14 11 8 8 7 5 5 3 4 5 2 4 6 5 3 3 5 4 3 3 4 3 5 4 5 4 3 7 2 6 14 14 11 13 10 12 11 11 12 12
23 22 21 20 18 9 6 4 3 4 5 7 4 2 4 5 3 4 5 8 1 2 7 2 6 11 13 10 4 4 5 9 12 13 5 11 12 12 14 14 14 12 11 11 13
24 23 23 22 19 10 4 4 2 1 9 14 13 8 7 1 3 4 10 8 6 9 4 4 11 12 8 8 8 7 9 11 11 11 8 12 14 15 15 11 10 12 15 18 18
24 24 23 24 14 5 3 4 5 4 4 4 5 4 5 10 5 5 11 8 7 8 9 11 3 9 9 8 9 10 10 10 11 9 8 12 15 9 8 11 13 14 15 17 17
23 24 22 25 3 3 4 0 3 4 3 3 3 3 5 7 6 10 11 8 5 12 8 9 12 12 8 11 10 12 10 13 10 8 10 4 10 16 11 8 8 14 15 14 17
26 25 21 12 7 4 2 6 3 3 2 2 4 7 5 7 4 5 5 5 10 7 7 4 5 7 8 9 12 9 4 9 10 11 8 13 15 3 11 16 13 8 14 16 17
26 26 23 1 3 7 7 5 3 2 2 3 4 3 3 3 1 4 6 1 1 6 8 10 2 4 7 2 10 2 4 3 2 5 13 15 15 5 8 12 11 14 9 13 17
28 30 20 4 2 4 5 3 2 4 4 5 4 2 4 3 5 3 7 10 10 6 10 11 17 11 9 13 7 6 6 7 8 9 13 5 11 12 14 16 12 8 8 13 17
32 28 2 4 4 6 2 2 3 2 4 5 9 7 1 2 3 3 2 5 6 8 8 6 9 5 5 12 9 9 10 8 9 12 16 12 10 9 5 12 11 9 9 14 17
25 5 2 5 3 3 2 2 0 1 2 6 8 2 4 3 1 2 5 4 2 7 7 6 5 1 3 2 2 6 8 2 7 6 11 11 14 11 13 10 7 9 13 17 18
5 4 4 11 1 1 2 1 2 3 4 5 3 7 6 1 5 5 2 4 2 3 4 4 6 2 2 2 6 3 8 4 1 8 17 9 15 12 15 7 10 13 15 17 17
3 2 5 11 2 3 0 2 3 7 6 3 4 2 8 11 10 5 3 1 3 1 2 1 5 5 2 6 11 5 5 2 2 3 7 12 5 2 9 12 15 11 16 16 15
4 1 6 7 2 2 2 5 7 3 5 2 1 3 7 7 6 4 11 7 11 1 6 2 4 9 15 10 4 5 9 8 6 7 6 9 16 15 19 11 7 16 19 14 12
4 4 5 4 2 3 5 5 5 6 2 1 3 5 1 3 5 8 7 2 3 2 2 1 2 6 4 4 3 6 6 7 4 6 15 16 14 5 6 15 19 20 16 11 11
3 4 4 6 3 4 6 3 5 10 8 4 5 4 4 6 10 6 7 4 7 3 8 1 6 12 12 10 5 7 11 14 14 9 15 19 28 24 21 21 19 17 11 11 11
3 3 2 4 3 6 2 4 9 5 2 2 3 4 1 3 4 7 12 16 14 11 8 9 12 16 18 21 18 15 15 14 17 21 21 24 25 24 24 22 19 12 11 11 12
2 3 2 3 4 4 2 2 6 6 4 2 4 9 8 6 7 5 5 7 6 5 9 3 10 5 12 11 14 18 20 21 23 24 24 25 30 21 14 9 11 13 12 14 15
1 1 1 2 3 2 1 4 7 9 5 8 6 8 7 13 13 13 13 13 15 14 11 6 6 6 12 7 9 13 18 19 20 19 16 18 19 10 12 14 15 14 14 18 19
Wind_Direction
345 342 334 327 319 311 309 305 303 303 303 293 303 312 315 314 315 264 241 225 184 221 190 142 130 126 91 117 118 146 190 221 231 218 234 226 288 317 316 284 303 300 285 316 352
344 343 338 332 325 317 309 302 296 292 291 297 303 307 318 322 290 248 244 201 212 177 158 149 139 138 110 133 138 192 216 214 221 232 259 275 291 300 286 293 288 284 275 295 304
345 343 342 336 329 321 312 303 298 296 297 297 300 312 313 318 265 221 171 193 192 175 140 106 125 121 127 161 157 149 225 196 226 242 261 270 273 276 280 282 277 285 296 294 296
346 347 344 340 334 327 317 307 296 290 291 297 305 306 304 256 140 18 157 164 168 168 130 125 129 137 145 162 153 188 238 201 261 247 269 263 283 271 258 267 275 276 280 290 291
347 346 346 342 336 329 320 309 297 293 293 297 302 304 290 236 254 40 133 141 136 147 153 147 152 138 157 152 143 194 230 205 252 268 258 268 251 260 262 263 272 276 275 273 283
342 347 345 341 336 331 323 311 302 292 291 291 291 291 258 253 98 144 131 138 149 150 160 156 171 175 116 137 197 169 224 253 273 261 261 269 272 197 234 257 273 280 286 281 285
339 340 343 339 334 330 323 313 298 280 278 276 250 219 260 244 64 162 161 163 167 162 151 183 143 183 149 147 143 151 257 254 233 253 243 247 267 240 256 322 295 298 294 298 293
335 336 338 341 333 327 323 313 297 278 254 231 185 207 255 238 137 155 180 148 182 211 149 189 157 103 325 126 108 197 204 264 144 205 228 202 267 287 325 325 315 302 302 305 308
333 332 334 337 335 327 323 315 286 240 216 163 164 239 266 299 233 190 177 173 157 182 228 262 94 67 140 178 261 36 264 264 304 192 281 230 301 298 301 310 308 303 295 300 303
331 331 330 331 334 326 324 345 115 129 122 174 246 270 242 182 172 149 170 138 139 142 135 142 107 172 133 191 229 167 203 231 262 243 288 296 289 291 303 310 299 295 289 291 293
330 330 330 329 326 321 319 160 190 182 217 219 183 235 272 313 169 160 153 143 102 106 195 101 209 216 213 209 220 238 242 257 265 272 274 277 284 289 301 303 301 300 293 280 279
328 330 331 329 329 312 186 191 180 24 294 234 244 263 257 22 343 138 157 174 180 206 148 196 243 238 212 201 217 219 255 262 271 262 215 276 276 289 281 279 277 286 294 294 292
326 329 334 332 341 124 270 262 111 142 282 295 195 195 206 181 223 227 180 148 185 192 201 224 208 104 193 209 227 233 236 260 271 303 243 278 278 267 267 246 270 274 269 273 280
325 328 333 335 199 334 244 55 339 218 328 272 224 166 142 157 215 195 188 169 184 216 188 242 249 245 224 240 219 263 227 254 269 279 289 13 290 295 298 274 264 279 295 318 305
325 325 328 323 298 250 100 329 145 231 14 64 87 144 142 198 127 173 177 176 205 177 190 205 181 169 203 232 185 255 202 254 277 269 290 277 277 209 284 293 290 332 328 333 332
321 316 325 209 223 256 310 312 196 210 256 43 118 140 162 241 15 118 174 139 188 208 231 260 241 239 256 183 205 147 256 286 263 281 258 268 262 288 290 291 298 312 328 338 342
320 316 314 221 247 324 300 177 180 234 338 22 22 344 249 239 229 220 177 192 211 193 234 254 243 256 230 255 185 214 253 269 253 234 267 335 286 270 291 281 297 289 318 334 328
321 319 296 232 280 332 220 127 227 66 32 1 346 337 238 38 9 355 156 220 219 238 263 261 270 212 182 226 248 206 219 232 266 272 287 309 262 289 285 300 297 283 324 331 336
323 341 311 329 269 194 174 175 300 132 56 6 359 55 304 74 24 323 323 290 268 182 225 199 247 265 49 121 244 149 211 341 278 237 273 261 267 268 271 290 340 343 343 347 336
328 330 360 340 160 259 83 266 97 36 32 39 117 356 349 97 209 304 308 289 260 230 254 192 267 201 108 109 63 241 134 184 201 283 282 271 282 270 287 293 319 326 338 338 330
334 22 356 344 253 44 69 20 5 67 81 111 164 243 280 286 292 304 236 156 358 39 358 155 253 231 222 227 247 173 196 100 330 213 275 299 263 198 271 297 305 302 323 326 325
336 26 354 334 30 25 45 340 336 9 48 165 146 234 239 255 286 242 256 259 293 208 274 14 264 257 260 272 276 265 240 215 222 219 236 266 280 274 273 283 258 291 313 316 318
359 302 336 332 51 32 347 335 328 7 26 134 205 197 207 283 283 298 276 341 222 197 151 121 240 277 245 202 184 235 202 218 230 256 247 263 267 184 214 294 297 304 306 307 322
340 341 357 37 54 36 3 325 336 347 312 268 261 278 260 247 202 269 238 280 332 352 347 299 260 257 261 291 307 262 239 227 223 235 262 250 273 279 288 293 304 300 295 307 316
12 53 20 348 16 350 285 311 307 299 259 18 280 302 157 256 237 228 254 262 281 316 290 240 244 255 258 264 268 264 258 245 229 243 253 273 274 288 296 297 293 288 286 303 315
44 353 11 304 283 324 236 268 291 355 335 296 253 292 232 234 255 279 281 280 278 276 275 224 256 238 265 274 272 270 263 256 253 252 257 264 277 287 297 285 265 272 287 299 305
81 93 245 308 313 277 177 11 323 339 280 254 348 327 272 268 278 286 271 259 254 268 272 252 247 264 276 300 296 268 259 259 258 256 260 261 274 316 281 278 277 288 293 297 302